Time,TemperatureF,DewpointF,PressureIn,WindDirection,WindDirectionDegrees,WindSpeedMPH,WindSpeedGustMPH,Humidity,HourlyPrecipIn,Conditions,Clouds,dailyrainin,SoftwareType,DateUTC
2013-09-27 00:12:00,67.0,61.0,-100.00,NNW,330,6.0,9.0,81,0.00,,,-99.99,,2013-09-27 05:12:00,
2013-09-27 00:52:00,66.0,60.0,-100.00,NNW,340,4.0,9.0,80,0.00,,,-99.99,,2013-09-27 05:52:00,
2013-09-27 01:11:00,65.0,59.0,-100.00,NNW,345,4.0,9.0,80,0.00,,,-99.99,,2013-09-27 06:11:00,
2013-09-27 01:52:00,64.0,58.0,-100.00,NNW,345,4.0,9.0,82,0.00,,,-99.99,,2013-09-27 06:52:00,
2013-09-27 02:12:00,63.0,58.0,-100.00,North,0,4.0,9.0,83,0.00,,,-99.99,,2013-09-27 07:12:00,
2013-09-27 02:53:00,62.0,57.0,-100.00,North,350,4.0,9.0,82,0.00,,,-99.99,,2013-09-27 07:53:00,
2013-09-27 03:11:00,62.0,56.0,-100.00,North,0,3.0,9.0,82,0.00,,,-99.99,,2013-09-27 08:11:00,
2013-09-27 03:52:00,61.0,55.0,-100.00,NNW,335,5.0,9.0,81,0.00,,,-99.99,,2013-09-27 08:52:00,
2013-09-27 04:12:00,60.0,55.0,-100.00,North,0,4.0,9.0,81,0.00,,,-99.99,,2013-09-27 09:12:00,
2013-09-27 04:54:00,58.0,54.0,-100.00,NNW,330,3.0,9.0,83,0.00,,,-99.99,,2013-09-27 09:54:00,
2013-09-27 05:13:00,58.0,53.0,-100.00,North,355,4.0,9.0,84,0.00,,,-99.99,,2013-09-27 10:13:00,
2013-09-27 05:52:00,58.0,52.0,-100.00,North,5,2.0,8.0,83,0.00,,,-99.99,,2013-09-27 10:52:00,
2013-09-27 06:12:00,57.0,52.0,-100.00,NNW,340,5.0,9.0,82,0.00,,,-99.99,,2013-09-27 11:12:00,
2013-09-27 06:52:00,57.0,51.0,-100.00,West,275,1.0,6.0,82,0.00,,,-99.99,,2013-09-27 11:52:00,
2013-09-27 07:12:00,57.0,52.0,-100.00,North,350,3.0,5.0,83,0.00,,,-99.99,,2013-09-27 12:12:00,
2013-09-27 07:52:00,56.0,51.0,-100.00,NNW,340,6.0,9.0,82,0.00,,,-99.99,,2013-09-27 12:52:00,
2013-09-27 08:11:00,56.0,51.0,-100.00,NNW,335,5.0,9.0,82,0.00,,,-99.99,,2013-09-27 13:11:00,
2013-09-27 08:53:00,56.0,51.0,-100.00,North,350,4.0,9.0,83,0.00,,,-99.99,,2013-09-27 13:53:00,
2013-09-27 09:11:00,56.0,51.0,-100.00,NNW,340,4.0,8.0,83,0.00,,,-99.99,,2013-09-27 14:11:00,
2013-09-27 09:52:00,56.0,52.0,-100.00,NE,55,1.0,9.0,86,0.00,,,-99.99,,2013-09-27 14:52:00,
2013-09-27 10:11:00,56.0,52.0,-100.00,NNE,20,2.0,6.0,86,0.00,,,-99.99,,2013-09-27 15:11:00,
2013-09-27 10:54:00,56.0,52.0,-100.00,North,10,1.0,7.0,88,0.00,,,-99.99,,2013-09-27 15:54:00,
2013-09-27 11:13:00,56.0,53.0,-100.00,NNW,330,4.0,8.0,89,0.00,,,-99.99,,2013-09-27 16:13:00,
2013-09-27 11:53:00,56.0,53.0,-100.00,North,350,1.0,9.0,89,0.00,,,-99.99,,2013-09-27 16:53:00,
2013-09-27 12:13:00,56.0,53.0,-100.00,NNW,330,3.0,7.0,89,0.00,,,-99.99,,2013-09-27 17:13:00,
2013-09-27 12:52:00,56.0,53.0,-100.00,North,350,3.0,9.0,90,0.00,,,-99.99,,2013-09-27 17:52:00,
2013-09-27 13:13:00,56.0,53.0,-100.00,North,0,2.0,9.0,89,0.00,,,-99.99,,2013-09-27 18:13:00,
2013-09-27 13:52:00,55.0,53.0,-100.00,NNW,340,4.0,9.0,91,0.00,,,-99.99,,2013-09-27 18:52:00,
2013-09-27 14:12:00,55.0,53.0,-100.00,North,350,6.0,9.0,91,0.00,,,-99.99,,2013-09-27 19:12:00,
2013-09-27 14:53:00,54.0,52.0,-100.00,NW,325,6.0,9.0,92,0.00,,,-99.99,,2013-09-27 19:53:00,
2013-09-27 15:12:00,54.0,52.0,-100.00,NNW,340,4.0,9.0,93,0.00,,,-99.99,,2013-09-27 20:12:00,
2013-09-27 15:52:00,52.0,51.0,-100.00,NNW,335,5.0,9.0,95,0.00,,,-99.99,,2013-09-27 20:52:00,
2013-09-27 16:12:00,51.0,50.0,-100.00,NNW,335,4.0,9.0,95,0.00,,,-99.99,,2013-09-27 21:12:00,
2013-09-27 16:54:00,52.0,52.0,-100.00,North,355,5.0,9.0,97,0.01,,,-99.99,,2013-09-27 21:54:00,
2013-09-27 17:14:00,52.0,52.0,-100.00,NNW,340,4.0,9.0,98,0.10,,,-99.99,,2013-09-27 22:14:00,
2013-09-27 17:53:00,53.0,53.0,-100.00,NNW,330,6.0,9.0,99,0.00,,,-99.99,,2013-09-27 22:53:00,
2013-09-27 18:12:00,53.0,53.0,-100.00,North,5,5.0,9.0,99,0.00,,,-99.99,,2013-09-27 23:12:00,
2013-09-27 18:53:00,53.0,53.0,-100.00,NW,320,5.0,9.0,99,0.00,,,-99.99,,2013-09-27 23:53:00,
2013-09-27 19:12:00,53.0,53.0,-100.00,NW,325,6.0,9.0,99,0.00,,,-99.99,,2013-09-28 00:12:00,
2013-09-27 19:52:00,53.0,53.0,-100.00,NW,320,4.0,8.0,99,0.00,,,-99.99,,2013-09-28 00:52:00,
2013-09-27 20:12:00,53.0,53.0,-100.00,NW,325,7.0,9.0,99,0.00,,,-99.99,,2013-09-28 01:12:00,
2013-09-27 20:52:00,53.0,53.0,-100.00,NW,315,1.0,8.0,99,0.00,,,-99.99,,2013-09-28 01:52:00,
2013-09-27 21:12:00,53.0,53.0,-100.00,NNW,330,4.0,6.0,99,0.00,,,-99.99,,2013-09-28 02:12:00,
2013-09-27 21:53:00,53.0,53.0,-100.00,NW,320,4.0,7.0,99,0.00,,,-99.99,,2013-09-28 02:53:00,
2013-09-27 22:12:00,53.0,53.0,-100.00,NW,325,6.0,9.0,99,0.00,,,-99.99,,2013-09-28 03:12:00,
2013-09-27 22:55:00,53.0,53.0,-100.00,NW,320,6.0,9.0,99,0.00,,,-99.99,,2013-09-28 03:55:00,
2013-09-27 23:13:00,53.0,53.0,-100.00,NW,325,4.0,6.0,99,0.01,,,-99.99,,2013-09-28 04:13:00,
2013-09-27 23:54:00,53.0,53.0,-100.00,NNW,340,1.0,3.0,99,0.03,,,-99.99,,2013-09-28 04:54:00,